,,Stat5,,Stat1,,Stat2,,Stat3,,Stat4,,Wind1,,Wind1,
time,status,PA1M_AVG,status,PR1M_SUM,status,RH1M_AVG,status,SR1M_AVG,status,TA1M_AVG,status,W1dAve1m,status,W1sAve1m,
2003-03-26, 00:00:00,VALID,918.96,VALID,0,VALID,99.8973,VALID,0.0339617,VALID,19.0096,VALID,51,VALID,1.04646,
2003-03-26, 00:01:00,VALID,918.941,VALID,0,VALID,99.9125,VALID,0.0339617,VALID,19.0071,VALID,55,VALID,1.07052,
2003-03-26, 00:02:00,VALID,918.943,VALID,0,VALID,99.9087,VALID,0,VALID,19.0071,VALID,41,VALID,0.856988,
2003-03-26, 00:03:00,VALID,918.916,VALID,0,VALID,99.9151,VALID,0.0339617,VALID,19.0135,VALID,46,VALID,0.9981,
2003-03-26, 00:04:00,VALID,918.905,VALID,0,VALID,99.9036,VALID,0.0169808,VALID,18.9999,VALID,49,VALID,1.02323,
2003-03-26, 00:05:00,VALID,918.889,VALID,0,VALID,99.9125,VALID,0.0169808,VALID,19.0031,VALID,38,VALID,0.931799,
2003-03-26, 00:06:00,VALID,918.865,VALID,0,VALID,99.9049,VALID,0.0509425,VALID,19.0066,VALID,38,VALID,0.936699,
2003-03-26, 00:07:00,VALID,918.856,VALID,0,VALID,99.8973,VALID,0,VALID,19.02,VALID,32,VALID,0.718117,
2003-03-26, 00:08:00,VALID,918.844,VALID,0,VALID,99.9074,VALID,0.0169808,VALID,19.0237,VALID,54,VALID,0.688556,
2003-03-26, 00:09:00,VALID,918.841,VALID,0,VALID,99.9074,VALID,0,VALID,19.0163,VALID,59,VALID,0.343304,
2003-03-26, 00:10:00,VALID,918.846,VALID,0,VALID,99.9125,VALID,0.0169808,VALID,19.0131,VALID,59,VALID,0.0367399,
2003-03-26, 00:11:00,VALID,918.842,VALID,0,VALID,99.8973,VALID,0.0509425,VALID,19.0265,VALID,59,VALID,0,
2003-03-26, 00:12:00,VALID,918.854,VALID,0,VALID,99.8884,VALID,0.0509425,VALID,19.0421,VALID,59,VALID,0,
2003-03-26, 00:13:00,VALID,918.855,VALID,0,VALID,99.896,VALID,0.0849042,VALID,19.0454,VALID,59,VALID,0.00105574,
2003-03-26, 00:14:00,VALID,918.836,VALID,0,VALID,99.8909,VALID,0.0509425,VALID,19.0354,VALID,58,VALID,0,
2003-03-26, 00:15:00,VALID,918.859,VALID,0,VALID,99.9125,VALID,0,VALID,19.0324,VALID,53,VALID,0.124609,
2003-03-26, 00:16:00,VALID,918.846,VALID,0,VALID,99.8922,VALID,0.0509425,VALID,19.026,VALID,45,VALID,0.304487,
2003-03-26, 00:17:00,VALID,918.839,VALID,0,VALID,99.9074,VALID,0.0169808,VALID,19.0324,VALID,31,VALID,0.264824,
2003-03-26, 00:18:00,VALID,918.823,VALID,0,VALID,99.9112,VALID,0.0679233,VALID,19.0195,VALID,21,VALID,0.34809,
2003-03-26, 00:19:00,VALID,918.811,VALID,0,VALID,99.9112,VALID,0,VALID,19.0451,VALID,20,VALID,0.397171,
2003-03-26, 00:20:00,VALID,918.781,VALID,0,VALID,99.9062,VALID,0,VALID,19.0618,VALID,19,VALID,0.355469,
2003-03-26, 00:21:00,VALID,918.775,VALID,0,VALID,99.9011,VALID,0.0509425,VALID,19.0426,VALID,19,VALID,0.397615,
2003-03-26, 00:22:00,VALID,918.752,VALID,0,VALID,99.9049,VALID,0.0339617,VALID,19.026,VALID,19,VALID,0.334852,
2003-03-26, 00:23:00,VALID,918.739,VALID,0,VALID,99.9011,VALID,0.0169808,VALID,19.0392,VALID,19,VALID,0.259924,
2003-03-26, 00:24:00,VALID,918.726,VALID,0,VALID,99.9112,VALID,0.0169808,VALID,19.0493,VALID,19,VALID,0.27611,
2003-03-26, 00:25:00,VALID,918.712,VALID,0,VALID,99.9112,VALID,0.0339617,VALID,19.0526,VALID,19,VALID,0.240709,
2003-03-26, 00:26:00,VALID,918.711,VALID,0,VALID,99.9036,VALID,0.0169808,VALID,19.0553,VALID,19,VALID,0.207332,
2003-03-26, 00:27:00,VALID,918.694,VALID,0,VALID,99.9074,VALID,0.0169808,VALID,19.0555,VALID,19,VALID,0.307432,
2003-03-26, 00:28:00,VALID,918.682,VALID,0,VALID,99.8998,VALID,0.0169808,VALID,19.0392,VALID,19,VALID,0.313978,
2003-03-26, 00:29:00,VALID,918.662,VALID,0,VALID,99.8922,VALID,0,VALID,19.0332,VALID,19,VALID,0.303125,
2003-03-26, 00:30:00,VALID,918.639,VALID,0,VALID,99.9049,VALID,0.0169808,VALID,19.026,VALID,99,VALID,0.335304,
2003-03-26, 00:31:00,VALID,918.635,VALID,0,VALID,99.9062,VALID,0.0339617,VALID,19.0327,VALID,105,VALID,0.421074,
2003-03-26, 00:32:00,VALID,918.625,VALID,0,VALID,99.9112,VALID,0.0509425,VALID,19.0454,VALID,107,VALID,0.38192,
2003-03-26, 00:33:00,VALID,918.618,VALID,0,VALID,99.9036,VALID,0.0169808,VALID,19.0618,VALID,125,VALID,0.453125,
2003-03-26, 00:34:00,VALID,918.597,VALID,0,VALID,99.9074,VALID,0.0509425,VALID,19.0645,VALID,137,VALID,0.32704,
2003-03-26, 00:35:00,VALID,918.595,VALID,0,VALID,99.9087,VALID,0.0169808,VALID,19.0906,VALID,127,VALID,0.392773,
2003-03-26, 00:36:00,VALID,918.585,VALID,0,VALID,99.9125,VALID,0,VALID,19.107,VALID,115,VALID,0.686699,
2003-03-26, 00:37:00,VALID,918.587,VALID,0,VALID,99.9036,VALID,-0.0169808,VALID,19.0909,VALID,114,VALID,0.926082,
2003-03-26, 00:38:00,VALID,918.576,VALID,0,VALID,99.9151,VALID,-0.0679233,VALID,19.0789,VALID,109,VALID,1.0638,
2003-03-26, 00:39:00,VALID,918.59,VALID,0,VALID,99.91,VALID,-0.0509425,VALID,19.0722,VALID,98,VALID,0.97614,
2003-03-26, 00:40:00,VALID,918.585,VALID,0,VALID,99.9151,VALID,-0.0509425,VALID,19.0719,VALID,103,VALID,1.01275,
2003-03-26, 00:41:00,VALID,918.583,VALID,0,VALID,99.9176,VALID,-0.0679233,VALID,19.0694,VALID,104,VALID,1.10835,
2003-03-26, 00:42:00,VALID,918.592,VALID,0,VALID,99.9189,VALID,-0.0849042,VALID,19.0729,VALID,112,VALID,0.75651,
2003-03-26, 00:43:00,VALID,918.59,VALID,0,VALID,99.9138,VALID,-0.0509425,VALID,19.059,VALID,121,VALID,1.08171,
2003-03-26, 00:44:00,VALID,918.576,VALID,0,VALID,99.9214,VALID,-0.0679233,VALID,19.0759,VALID,113,VALID,1.12459,
2003-03-26, 00:45:00,VALID,918.576,VALID,0,VALID,99.9112,VALID,-0.101885,VALID,19.0496,VALID,120,VALID,1.15372,
2003-03-26, 00:46:00,VALID,918.576,VALID,0,VALID,99.9125,VALID,-0.0679233,VALID,19.0304,VALID,112,VALID,1.35857,
2003-03-26, 00:47:00,VALID,918.55,VALID,0,VALID,99.9125,VALID,-0.0679233,VALID,19.0207,VALID,118,VALID,1.31862,
2003-03-26, 00:48:00,VALID,918.538,VALID,0,VALID,99.91,VALID,-0.0679233,VALID,19.021,VALID,100,VALID,1.28125,
2003-03-26, 00:49:00,VALID,918.534,VALID,0,VALID,99.924,VALID,-0.0849042,VALID,19.011,VALID,98,VALID,1.27567,
2003-03-26, 00:50:00,VALID,918.52,VALID,0,VALID,99.9227,VALID,-0.0679233,VALID,19.0242,VALID,110,VALID,1.09459,
2003-03-26, 00:51:00,VALID,918.533,VALID,0,VALID,99.9189,VALID,-0.0509425,VALID,19.021,VALID,106,VALID,1.48157,
2003-03-26, 00:52:00,VALID,918.52,VALID,0,VALID,99.924,VALID,-0.0679233,VALID,19.0147,VALID,117,VALID,0.971875,
2003-03-26, 00:53:00,VALID,918.513,VALID,0,VALID,99.9112,VALID,-0.0339617,VALID,19.0272,VALID,128,VALID,1.25971,
2003-03-26, 00:54:00,VALID,918.507,VALID,0,VALID,99.9138,VALID,-0.0509425,VALID,19.0274,VALID,122,VALID,0.999132,
2003-03-26, 00:55:00,VALID,918.504,VALID,0.2,VALID,99.9138,VALID,-0.0679233,VALID,19.0371,VALID,134,VALID,0.854883,
2003-03-26, 00:56:00,VALID,918.491,VALID,0,VALID,99.9112,VALID,-0.0169808,VALID,19.0272,VALID,117,VALID,0.989583,
2003-03-26, 00:57:00,VALID,918.473,VALID,0,VALID,99.9125,VALID,-0.0339617,VALID,19.0401,VALID,127,VALID,1.15986,
2003-03-26, 00:58:00,VALID,918.455,VALID,0.2,VALID,99.9112,VALID,-0.0849042,VALID,19.0438,VALID,94,VALID,1.30447,
2003-03-26, 00:59:00,VALID,918.456,VALID,0.2,VALID,99.9112,VALID,-0.0509425,VALID,19.0371,VALID,105,VALID,1.00866,
2003-03-26, 01:00:00,VALID,918.46,VALID,0.2,VALID,99.9201,VALID,-0.0339617,VALID,19.0272,VALID,95,VALID,1.21311,
2003-03-26, 01:01:00,VALID,918.43,VALID,0.4,VALID,99.9087,VALID,-0.0849042,VALID,19.0339,VALID,110,VALID,1.24424,
2003-03-26, 01:02:00,VALID,918.41,VALID,0,VALID,99.9049,VALID,-0.101885,VALID,19.0304,VALID,126,VALID,1.00673,
2003-03-26, 01:03:00,VALID,918.397,VALID,0.2,VALID,99.9087,VALID,-0.0169808,VALID,19.0371,VALID,96,VALID,0.331292,
2003-03-26, 01:04:00,VALID,918.382,VALID,0,VALID,99.91,VALID,-0.0849042,VALID,19.0369,VALID,97,VALID,0.910979,
2003-03-26, 01:05:00,VALID,918.361,VALID,0,VALID,99.91,VALID,-0.0509425,VALID,19.0274,VALID,100,VALID,0.926098,
2003-03-26, 01:06:00,VALID,918.355,VALID,0.2,VALID,99.9138,VALID,-0.0679233,VALID,19.0237,VALID,96,VALID,0.864183,
2003-03-26, 01:07:00,VALID,918.355,VALID,0,VALID,99.9138,VALID,-0.0509425,VALID,19.014,VALID,94,VALID,0.839105,
2003-03-26, 01:08:00,VALID,918.363,VALID,0,VALID,99.9036,VALID,0.0169808,VALID,19.0332,VALID,98,VALID,0.927576,
2003-03-26, 01:09:00,VALID,918.346,VALID,0.2,VALID,99.9023,VALID,0.0339617,VALID,19.026,VALID,97,VALID,0.859375,
2003-03-26, 01:10:00,VALID,918.348,VALID,0,VALID,99.9125,VALID,0.0169808,VALID,19.0295,VALID,82,VALID,0.843539,
2003-03-26, 01:11:00,VALID,918.333,VALID,0.2,VALID,99.9062,VALID,0.0339617,VALID,19.0327,VALID,98,VALID,1.19692,
2003-03-26, 01:12:00,VALID,918.318,VALID,0,VALID,99.9023,VALID,0.0169808,VALID,19.026,VALID,97,VALID,1.14375,
2003-03-26, 01:13:00,VALID,918.298,VALID,0,VALID,99.8998,VALID,0.0339617,VALID,19.0257,VALID,85,VALID,0.520059,
2003-03-26, 01:14:00,VALID,918.288,VALID,0.2,VALID,99.91,VALID,0,VALID,19.0491,VALID,126,VALID,0.529514,
2003-03-26, 01:15:00,VALID,918.269,VALID,0,VALID,99.8934,VALID,0,VALID,19.0387,VALID,93,VALID,0.571289,
2003-03-26, 01:16:00,VALID,918.251,VALID,0,VALID,99.9049,VALID,0.0509425,VALID,19.0387,VALID,118,VALID,0.65024,
2003-03-26, 01:17:00,VALID,918.247,VALID,0,VALID,99.91,VALID,0.0339617,VALID,19.0648,VALID,78,VALID,0.783654,
2003-03-26, 01:18:00,VALID,918.234,VALID,0.2,VALID,99.8985,VALID,0.0339617,VALID,19.0551,VALID,90,VALID,0.646267,
2003-03-26, 01:19:00,VALID,918.218,VALID,0,VALID,99.9036,VALID,0.0169808,VALID,19.0447,VALID,82,VALID,0.658995,
2003-03-26, 01:20:00,VALID,918.2,VALID,0,VALID,99.9036,VALID,0.0849042,VALID,19.0417,VALID,103,VALID,0.683799,
2003-03-26, 01:21:00,VALID,918.196,VALID,0,VALID,99.9036,VALID,0.0509425,VALID,19.0451,VALID,115,VALID,0.672697,
2003-03-26, 01:22:00,VALID,918.196,VALID,0,VALID,99.9049,VALID,0,VALID,19.0424,VALID,122,VALID,0.413845,
2003-03-26, 01:23:00,VALID,918.18,VALID,0.2,VALID,99.9011,VALID,-0.0679233,VALID,19.0468,VALID,116,VALID,0.333193,
2003-03-26, 01:24:00,VALID,918.18,VALID,0,VALID,99.8998,VALID,-0.0849042,VALID,19.053,VALID,116,VALID,0.205592,
2003-03-26, 01:25:00,VALID,918.172,VALID,0,VALID,99.9125,VALID,-0.0679233,VALID,19.0662,VALID,116,VALID,0.0988176,
2003-03-26, 01:26:00,VALID,918.168,VALID,0,VALID,99.9112,VALID,-0.0339617,VALID,19.069,VALID,126,VALID,0.466146,
2003-03-26, 01:27:00,VALID,918.17,VALID,0,VALID,99.9125,VALID,-0.0509425,VALID,19.0757,VALID,133,VALID,0.504856,
2003-03-26, 01:28:00,VALID,918.147,VALID,0,VALID,99.9163,VALID,-0.0849042,VALID,19.0893,VALID,131,VALID,0.175676,
2003-03-26, 01:29:00,VALID,918.148,VALID,0.2,VALID,99.9227,VALID,-0.0849042,VALID,19.0955,VALID,116,VALID,0.41875,
2003-03-26, 01:30:00,VALID,918.132,VALID,0,VALID,99.9138,VALID,-0.101885,VALID,19.0988,VALID,116,VALID,0.270693,
2003-03-26, 01:31:00,VALID,918.119,VALID,0,VALID,99.9087,VALID,-0.0169808,VALID,19.1177,VALID,127,VALID,0.48758,
2003-03-26, 01:32:00,VALID,918.113,VALID,0,VALID,99.91,VALID,-0.101885,VALID,19.1246,VALID,140,VALID,0.774107,
2003-03-26, 01:33:00,VALID,918.1,VALID,0.2,VALID,99.9087,VALID,-0.0679233,VALID,19.0988,VALID,139,VALID,0.746833,
2003-03-26, 01:34:00,VALID,918.09,VALID,0,VALID,99.9151,VALID,-0.0679233,VALID,19.0757,VALID,128,VALID,0.476563,
2003-03-26, 01:35:00,VALID,918.064,VALID,0,VALID,99.9125,VALID,-0.0679233,VALID,19.0824,VALID,115,VALID,0.424609,
2003-03-26, 01:36:00,VALID,918.046,VALID,0,VALID,99.9112,VALID,-0.0509425,VALID,19.0891,VALID,100,VALID,0.484776,
2003-03-26, 01:37:00,VALID,918.022,VALID,0,VALID,99.9163,VALID,-0.0339617,VALID,19.0851,VALID,97,VALID,0.601162,
2003-03-26, 01:38:00,VALID,918.001,VALID,0.2,VALID,99.9163,VALID,0.0679233,VALID,19.0703,VALID,129,VALID,0.743273,
2003-03-26, 01:39:00,VALID,917.99,VALID,0,VALID,99.9189,VALID,0.0169808,VALID,19.0807,VALID,137,VALID,0.475296,
2003-03-26, 01:40:00,VALID,917.987,VALID,0,VALID,99.9252,VALID,0.0169808,VALID,19.0844,VALID,125,VALID,0.582031,
2003-03-26, 01:41:00,VALID,917.981,VALID,0,VALID,99.924,VALID,0.0509425,VALID,19.071,VALID,135,VALID,0.527549,
2003-03-26, 01:42:00,VALID,917.965,VALID,0,VALID,99.9176,VALID,0.0339617,VALID,19.0645,VALID,123,VALID,0.65625,
2003-03-26, 01:43:00,VALID,917.962,VALID,0,VALID,99.9163,VALID,0,VALID,19.0779,VALID,122,VALID,0.238598,
2003-03-26, 01:44:00,VALID,917.951,VALID,0,VALID,99.9341,VALID,0.0169808,VALID,19.104,VALID,122,VALID,0.160979,
2003-03-26, 01:45:00,VALID,917.929,VALID,0.2,VALID,99.9316,VALID,0.0169808,VALID,19.0904,VALID,118,VALID,0.408573,
2003-03-26, 01:46:00,VALID,917.922,VALID,0,VALID,99.9329,VALID,0.0169808,VALID,19.1005,VALID,105,VALID,0.575521,
2003-03-26, 01:47:00,VALID,917.899,VALID,0,VALID,99.929,VALID,0.0679233,VALID,19.0904,VALID,102,VALID,0.464105,
2003-03-26, 01:48:00,VALID,917.887,VALID,0,VALID,99.9341,VALID,0.0339617,VALID,19.0869,VALID,102,VALID,0.20228,
2003-03-26, 01:49:00,VALID,917.861,VALID,0,VALID,99.9303,VALID,0.0509425,VALID,19.0936,VALID,102,VALID,0.0348214,
2003-03-26, 01:50:00,VALID,917.841,VALID,0,VALID,99.929,VALID,0,VALID,19.0842,VALID,102,VALID,0.00633446,
2003-03-26, 01:51:00,VALID,917.816,VALID,0,VALID,99.9265,VALID,0.0169808,VALID,19.0938,VALID,102,VALID,0,
2003-03-26, 01:52:00,VALID,917.806,VALID,0.2,VALID,99.9252,VALID,0.0169808,VALID,19.1003,VALID,102,VALID,0.00111607,
2003-03-26, 01:53:00,VALID,917.788,VALID,0,VALID,99.924,VALID,0.0339617,VALID,19.1003,VALID,102,VALID,0.00253378,
2003-03-26, 01:54:00,VALID,917.767,VALID,0,VALID,99.9379,VALID,0.0169808,VALID,19.11,VALID,102,VALID,0,
2003-03-26, 01:55:00,VALID,917.755,VALID,0,VALID,99.9329,VALID,0.0339617,VALID,19.113,VALID,104,VALID,0.0550781,
2003-03-26, 01:56:00,VALID,917.744,VALID,0,VALID,99.929,VALID,0.0339617,VALID,19.1229,VALID,220,VALID,0.392228,
2003-03-26, 01:57:00,VALID,917.737,VALID,0.2,VALID,99.9418,VALID,0.0339617,VALID,19.1391,VALID,242,VALID,0.402444,
2003-03-26, 01:58:00,VALID,917.717,VALID,0,VALID,99.9252,VALID,0,VALID,19.1456,VALID,249,VALID,0.27322,
2003-03-26, 01:59:00,VALID,917.707,VALID,0,VALID,99.9354,VALID,0,VALID,19.1523,VALID,249,VALID,0.0599662,
2003-03-26, 02:00:00,VALID,917.692,VALID,0,VALID,99.9316,VALID,0.0339617,VALID,19.1582,VALID,249,VALID,0,
2003-03-26, 02:01:00,VALID,917.713,VALID,0,VALID,99.929,VALID,0.0169808,VALID,19.1744,VALID,249,VALID,0,
2003-03-26, 02:02:00,VALID,917.69,VALID,0,VALID,99.924,VALID,0,VALID,19.1908,VALID,249,VALID,0.349392,
2003-03-26, 02:03:00,VALID,917.683,VALID,0,VALID,99.9227,VALID,0,VALID,19.1396,VALID,248,VALID,0.607264,
2003-03-26, 02:04:00,VALID,917.679,VALID,0.2,VALID,99.9214,VALID,0,VALID,19.1331,VALID,248,VALID,0.403166,
2003-03-26, 02:05:00,VALID,917.674,VALID,0,VALID,99.9329,VALID,0,VALID,19.1259,VALID,242,VALID,0.508024,
2003-03-26, 02:06:00,VALID,917.646,VALID,0,VALID,99.9341,VALID,0,VALID,19.1202,VALID,240,VALID,0.648638,
2003-03-26, 02:07:00,VALID,917.65,VALID,0,VALID,99.9392,VALID,0,VALID,19.1199,VALID,240,VALID,0.596284,
2003-03-26, 02:08:00,VALID,917.628,VALID,0,VALID,99.9354,VALID,0.0339617,VALID,19.0809,VALID,243,VALID,0.853041,
2003-03-26, 02:09:00,VALID,917.608,VALID,0,VALID,99.9354,VALID,0,VALID,19.0687,VALID,240,VALID,0.577679,
2003-03-26, 02:10:00,VALID,917.594,VALID,0,VALID,99.9405,VALID,0,VALID,19.0623,VALID,243,VALID,0.621833,
2003-03-26, 02:11:00,VALID,917.572,VALID,0,VALID,99.9303,VALID,0,VALID,19.0451,VALID,244,VALID,0.64363,
2003-03-26, 02:12:00,VALID,917.554,VALID,0,VALID,99.9494,VALID,0.0169808,VALID,19.0454,VALID,242,VALID,0.453571,
2003-03-26, 02:13:00,VALID,917.56,VALID,0,VALID,99.9354,VALID,0.0169808,VALID,19.0583,VALID,255,VALID,0.45228,
2003-03-26, 02:14:00,VALID,917.54,VALID,0,VALID,99.9481,VALID,0,VALID,19.0583,VALID,261,VALID,0.16059,
2003-03-26, 02:15:00,VALID,917.522,VALID,0,VALID,99.9468,VALID,0.0169808,VALID,19.0518,VALID,261,VALID,0.0761719,
2003-03-26, 02:16:00,VALID,917.512,VALID,0,VALID,99.9392,VALID,0.0169808,VALID,19.0652,VALID,261,VALID,0.17488,
2003-03-26, 02:17:00,VALID,917.507,VALID,0.2,VALID,99.9443,VALID,-0.0169808,VALID,19.0749,VALID,263,VALID,0.129808,
2003-03-26, 02:18:00,VALID,917.499,VALID,0,VALID,99.9367,VALID,0.0169808,VALID,19.0521,VALID,264,VALID,0.477865,
2003-03-26, 02:19:00,VALID,917.482,VALID,0,VALID,99.9405,VALID,0,VALID,19.0354,VALID,264,VALID,0.217061,
2003-03-26, 02:20:00,VALID,917.473,VALID,0,VALID,99.9443,VALID,0.0169808,VALID,19.0555,VALID,264,VALID,0.201686,
2003-03-26, 02:21:00,VALID,917.473,VALID,0,VALID,99.9418,VALID,0,VALID,19.0359,VALID,264,VALID,0.0645559,
2003-03-26, 02:22:00,VALID,917.452,VALID,0,VALID,99.9456,VALID,0.0169808,VALID,19.0357,VALID,264,VALID,0,
2003-03-26, 02:23:00,VALID,917.464,VALID,0,VALID,99.943,VALID,0,VALID,19.0486,VALID,264,VALID,0.0857264,
2003-03-26, 02:24:00,VALID,917.461,VALID,0,VALID,99.9532,VALID,0.0169808,VALID,19.0359,VALID,264,VALID,0.0495477,
2003-03-26, 02:25:00,VALID,917.478,VALID,0.2,VALID,99.9532,VALID,0,VALID,19.0456,VALID,264,VALID,0,
2003-03-26, 02:26:00,VALID,917.47,VALID,0,VALID,99.9481,VALID,0.0509425,VALID,19.0518,VALID,322,VALID,0.189503,
2003-03-26, 02:27:00,VALID,917.473,VALID,0,VALID,99.9494,VALID,0.0339617,VALID,19.0941,VALID,20,VALID,0.740921,
2003-03-26, 02:28:00,VALID,917.466,VALID,0,VALID,99.9494,VALID,0.0169808,VALID,19.1073,VALID,22,VALID,0.88788,
2003-03-26, 02:29:00,VALID,917.485,VALID,0,VALID,99.9456,VALID,0.0339617,VALID,19.1068,VALID,22,VALID,0.717188,
2003-03-26, 02:30:00,VALID,917.48,VALID,0,VALID,99.9596,VALID,0,VALID,19.1165,VALID,20,VALID,0.626267,
2003-03-26, 02:31:00,VALID,917.487,VALID,0,VALID,99.9557,VALID,0,VALID,19.1165,VALID,21,VALID,0.778846,
2003-03-26, 02:32:00,VALID,917.496,VALID,0,VALID,99.9532,VALID,0.0509425,VALID,19.1033,VALID,33,VALID,0.766964,
2003-03-26, 02:33:00,VALID,917.476,VALID,0,VALID,99.9545,VALID,0,VALID,19.0774,VALID,35,VALID,0.61402,
2003-03-26, 02:34:00,VALID,917.492,VALID,0.2,VALID,99.957,VALID,0.0169808,VALID,19.0846,VALID,40,VALID,0.725911,
2003-03-26, 02:35:00,VALID,917.495,VALID,0,VALID,99.9507,VALID,0,VALID,19.0648,VALID,28,VALID,0.603516,
2003-03-26, 02:36:00,VALID,917.506,VALID,0,VALID,99.957,VALID,0.0169808,VALID,19.0715,VALID,27,VALID,0.632813,
2003-03-26, 02:37:00,VALID,917.507,VALID,0,VALID,99.9557,VALID,0.0509425,VALID,19.0548,VALID,27,VALID,0.539463,
2003-03-26, 02:38:00,VALID,917.516,VALID,0,VALID,99.9532,VALID,0.0169808,VALID,19.0812,VALID,27,VALID,0.747613,
2003-03-26, 02:39:00,VALID,917.504,VALID,0,VALID,99.9519,VALID,0.0169808,VALID,19.0643,VALID,40,VALID,0.988809,
2003-03-26, 02:40:00,VALID,917.514,VALID,0,VALID,99.9634,VALID,0,VALID,19.0583,VALID,34,VALID,0.995683,
2003-03-26, 02:41:00,VALID,917.506,VALID,0,VALID,99.9634,VALID,0.0169808,VALID,19.0618,VALID,25,VALID,0.756168,
2003-03-26, 02:42:00,VALID,917.52,VALID,0,VALID,99.9583,VALID,0,VALID,19.0715,VALID,21,VALID,0.711372,
2003-03-26, 02:43:00,VALID,917.52,VALID,0,VALID,99.9608,VALID,0.0169808,VALID,19.0842,VALID,19,VALID,0.55891,
2003-03-26, 02:44:00,VALID,917.519,VALID,0,VALID,99.9608,VALID,0,VALID,19.0772,VALID,17,VALID,0.612253,
2003-03-26, 02:45:00,VALID,917.517,VALID,0.2,VALID,99.9557,VALID,0.0169808,VALID,19.0749,VALID,15,VALID,0.89527,
2003-03-26, 02:46:00,VALID,917.519,VALID,0,VALID,99.9532,VALID,0,VALID,19.0685,VALID,13,VALID,0.790665,
2003-03-26, 02:47:00,VALID,917.503,VALID,0,VALID,99.9621,VALID,0.0169808,VALID,19.0745,VALID,12,VALID,0.868243,
2003-03-26, 02:48:00,VALID,917.498,VALID,0,VALID,99.9557,VALID,0,VALID,19.0484,VALID,7,VALID,0.684755,
2003-03-26, 02:49:00,VALID,917.489,VALID,0,VALID,99.9634,VALID,0,VALID,19.0295,VALID,7,VALID,0.33817,
2003-03-26, 02:50:00,VALID,917.496,VALID,0,VALID,99.9723,VALID,0,VALID,19.0421,VALID,1,VALID,0.312078,
2003-03-26, 02:51:00,VALID,917.492,VALID,0,VALID,99.9659,VALID,0.0339617,VALID,19.0223,VALID,357,VALID,0.204728,
2003-03-26, 02:52:00,VALID,917.492,VALID,0,VALID,99.9697,VALID,0.0509425,VALID,19.0193,VALID,357,VALID,0.0611607,
2003-03-26, 02:53:00,VALID,917.481,VALID,0,VALID,99.9634,VALID,0.0509425,VALID,19.0384,VALID,357,VALID,0.0261824,
2003-03-26, 02:54:00,VALID,917.492,VALID,0,VALID,99.9647,VALID,0.0339617,VALID,19.0257,VALID,357,VALID,0.151693,
2003-03-26, 02:55:00,VALID,917.481,VALID,0,VALID,99.9647,VALID,0.0509425,VALID,19.032,VALID,357,VALID,0,
2003-03-26, 02:56:00,VALID,917.486,VALID,0,VALID,99.972,VALID,0.0509425,VALID,19.0257,VALID,357,VALID,0.0216346,
2003-03-26, 02:57:00,VALID,917.491,VALID,0.2,VALID,99.9685,VALID,0.0339617,VALID,19.026,VALID,357,VALID,0.0432692,
2003-03-26, 02:58:00,VALID,917.501,VALID,0,VALID,99.9672,VALID,0.0679233,VALID,19.0359,VALID,357,VALID,0.0121528,
2003-03-26, 02:59:00,VALID,917.509,VALID,0,VALID,99.9634,VALID,0.0509425,VALID,19.0322,VALID,357,VALID,0,
2003-03-26, 03:00:00,VALID,917.511,VALID,0,VALID,99.971,VALID,0.0339617,VALID,19.0551,VALID,357,VALID,0,
2003-03-26, 03:01:00,VALID,917.515,VALID,0,VALID,99.971,VALID,0.0339617,VALID,19.0486,VALID,357,VALID,0,
2003-03-26, 03:02:00,VALID,917.52,VALID,0,VALID,99.9685,VALID,0.0339617,VALID,19.0391,VALID,357,VALID,0.0251736,
2003-03-26, 03:03:00,VALID,917.542,VALID,0,VALID,99.9748,VALID,0.0169808,VALID,19.0198,VALID,357,VALID,0,
2003-03-26, 03:04:00,VALID,917.544,VALID,0,VALID,99.9799,VALID,0,VALID,19.02,VALID,357,VALID,0,
2003-03-26, 03:05:00,VALID,917.538,VALID,0,VALID,99.9761,VALID,0.0339617,VALID,19.0394,VALID,357,VALID,0.14337,
2003-03-26, 03:06:00,VALID,917.527,VALID,0.2,VALID,99.9634,VALID,0.0169808,VALID,19.026,VALID,357,VALID,0.226162,
2003-03-26, 03:07:00,VALID,917.52,VALID,0,VALID,99.9735,VALID,0.0169808,VALID,19.0417,VALID,357,VALID,0.180321,
2003-03-26, 03:08:00,VALID,917.515,VALID,0,VALID,99.9825,VALID,0.0679233,VALID,19.0518,VALID,357,VALID,0.209037,
2003-03-26, 03:09:00,VALID,917.518,VALID,0,VALID,99.9723,VALID,0.0169808,VALID,19.029,VALID,357,VALID,0.0513393,
2003-03-26, 03:10:00,VALID,917.499,VALID,0,VALID,99.9812,VALID,0.0169808,VALID,19.0324,VALID,357,VALID,0.0010016,
2003-03-26, 03:11:00,VALID,917.499,VALID,0,VALID,99.9799,VALID,0.0339617,VALID,19.0421,VALID,357,VALID,0.0010016,
2003-03-26, 03:12:00,VALID,917.499,VALID,0,VALID,99.9774,VALID,0.0509425,VALID,19.0228,VALID,357,VALID,0,
2003-03-26, 03:13:00,VALID,917.498,VALID,0,VALID,99.9761,VALID,0.0169808,VALID,19.0131,VALID,357,VALID,0.174409,
2003-03-26, 03:14:00,VALID,917.486,VALID,0,VALID,99.986,VALID,0.0169808,VALID,19.0172,VALID,357,VALID,0.277561,
2003-03-26, 03:15:00,VALID,917.487,VALID,0,VALID,99.9761,VALID,0,VALID,19.0198,VALID,357,VALID,0.308594,
2003-03-26, 03:16:00,VALID,917.48,VALID,0,VALID,99.9746,VALID,0,VALID,19.0165,VALID,357,VALID,0.378606,
2003-03-26, 03:17:00,VALID,917.48,VALID,0,VALID,99.9774,VALID,0.0339617,VALID,19.0165,VALID,357,VALID,0.417869,
2003-03-26, 03:18:00,VALID,917.458,VALID,0,VALID,99.9748,VALID,0.0169808,VALID,19.0297,VALID,357,VALID,0.311415,
2003-03-26, 03:19:00,VALID,917.462,VALID,0,VALID,99.9685,VALID,0.0169808,VALID,19.0324,VALID,357,VALID,0.419552,
2003-03-26, 03:20:00,VALID,917.445,VALID,0,VALID,99.9735,VALID,0,VALID,19.0195,VALID,357,VALID,0.296464,
2003-03-26, 03:21:00,VALID,917.44,VALID,0,VALID,99.971,VALID,0.0169808,VALID,19.0098,VALID,357,VALID,0.163035,
2003-03-26, 03:22:00,VALID,917.429,VALID,0,VALID,99.9875,VALID,0.0509425,VALID,19.0031,VALID,357,VALID,0.139106,
2003-03-26, 03:23:00,VALID,917.421,VALID,0,VALID,99.9863,VALID,0.0169808,VALID,19.0232,VALID,357,VALID,0.00337838,
2003-03-26, 03:24:00,VALID,917.413,VALID,0.2,VALID,99.9858,VALID,0,VALID,19.0228,VALID,357,VALID,0,
2003-03-26, 03:25:00,VALID,917.405,VALID,0,VALID,99.9858,VALID,0,VALID,19.0396,VALID,357,VALID,0,
2003-03-26, 03:26:00,VALID,917.393,VALID,0,VALID,99.9799,VALID,0,VALID,19.0521,VALID,357,VALID,0.202524,
2003-03-26, 03:27:00,VALID,917.377,VALID,0,VALID,99.9761,VALID,0.0339617,VALID,19.0551,VALID,357,VALID,0.197635,
2003-03-26, 03:28:00,VALID,917.375,VALID,0,VALID,99.9863,VALID,0,VALID,19.0491,VALID,337,VALID,0.253801,
2003-03-26, 03:29:00,VALID,917.383,VALID,0,VALID,99.9748,VALID,0.0169808,VALID,19.0555,VALID,4,VALID,0.385491,
2003-03-26, 03:30:00,VALID,917.37,VALID,0,VALID,99.9875,VALID,0.0169808,VALID,19.0193,VALID,1,VALID,0.289485,
2003-03-26, 03:31:00,VALID,917.371,VALID,0,VALID,99.9723,VALID,0.0169808,VALID,19.0098,VALID,360,VALID,0.0288462,
2003-03-26, 03:32:00,VALID,917.378,VALID,0,VALID,99.9825,VALID,0,VALID,19.0165,VALID,360,VALID,0,
2003-03-26, 03:33:00,VALID,917.374,VALID,0,VALID,99.9761,VALID,0,VALID,19.016,VALID,360,VALID,0.141258,
2003-03-26, 03:34:00,VALID,917.365,VALID,0.2,VALID,99.9847,VALID,0.0339617,VALID,19.0225,VALID,360,VALID,0.190321,
2003-03-26, 03:35:00,VALID,917.356,VALID,0,VALID,99.9847,VALID,0.0169808,VALID,19.0364,VALID,360,VALID,0.313477,